Time,TemperatureF,DewpointF,PressureIn,WindDirection,WindDirectionDegrees,WindSpeedMPH,WindSpeedGustMPH,Humidity,HourlyPrecipIn,Conditions,Clouds,dailyrainin,SoftwareType,DateUTC
2013-01-21 00:04:00,35.9,29.4,30.08,West,259,0.0,14.0,77,0.00,,,0.00,Wunderground v.1.15,2013-01-21 05:04:00,
2013-01-21 00:06:00,35.9,29.4,30.08,West,259,0.0,14.0,77,0.00,,,0.00,Wunderground v.1.15,2013-01-21 05:06:00,
2013-01-21 00:12:00,36.8,29.3,30.08,West,259,0.0,14.0,74,0.00,,,0.00,Wunderground v.1.15,2013-01-21 05:12:00,
2013-01-21 00:14:00,37.1,29.2,30.08,West,259,0.0,14.0,73,0.00,,,0.00,Wunderground v.1.15,2013-01-21 05:14:00,
2013-01-21 00:20:00,37.8,29.6,30.07,West,259,0.0,14.0,72,0.00,,,0.00,Wunderground v.1.15,2013-01-21 05:20:00,
2013-01-21 00:26:00,37.8,29.6,30.07,West,259,0.0,14.0,72,0.00,,,0.00,Wunderground v.1.15,2013-01-21 05:26:00,
2013-01-21 00:32:00,37.7,29.5,30.07,West,259,0.0,14.0,72,0.00,,,0.00,Wunderground v.1.15,2013-01-21 05:32:00,
2013-01-21 00:38:00,37.5,28.9,30.07,West,259,0.0,14.0,71,0.00,,,0.00,Wunderground v.1.15,2013-01-21 05:38:00,
2013-01-21 00:44:00,37.3,29.1,30.07,West,259,0.0,14.0,72,0.00,,,0.00,Wunderground v.1.15,2013-01-21 05:44:00,
2013-01-21 00:50:00,37.1,28.6,30.07,West,259,0.0,14.0,71,0.00,,,0.00,Wunderground v.1.15,2013-01-21 05:50:00,
2013-01-21 00:56:00,36.9,28.4,30.07,West,259,0.0,14.0,71,0.00,,,0.00,Wunderground v.1.15,2013-01-21 05:56:00,
2013-01-21 01:02:00,36.8,28.6,30.07,West,259,0.0,14.0,72,0.00,,,0.00,Wunderground v.1.15,2013-01-21 06:02:00,
2013-01-21 01:08:00,36.7,28.2,30.07,West,259,0.0,14.0,71,0.00,,,0.00,Wunderground v.1.15,2013-01-21 06:08:00,
2013-01-21 01:14:00,37.1,28.2,30.07,West,259,0.0,14.0,70,0.00,,,0.00,Wunderground v.1.15,2013-01-21 06:14:00,
2013-01-21 01:20:00,37.1,28.2,30.07,West,259,0.0,14.0,70,0.00,,,0.00,Wunderground v.1.15,2013-01-21 06:20:00,
2013-01-21 01:26:00,37.0,27.8,30.07,West,259,0.0,14.0,69,0.00,,,0.00,Wunderground v.1.15,2013-01-21 06:26:00,
2013-01-21 01:32:00,37.0,27.4,30.08,West,259,0.0,14.0,68,0.00,,,0.00,Wunderground v.1.15,2013-01-21 06:32:00,
2013-01-21 01:38:00,37.1,27.2,30.08,West,259,0.0,14.0,67,0.00,,,0.00,Wunderground v.1.15,2013-01-21 06:38:00,
2013-01-21 01:44:00,37.2,27.6,30.08,West,259,0.0,14.0,68,0.00,,,0.00,Wunderground v.1.15,2013-01-21 06:44:00,
2013-01-21 01:50:00,37.2,27.2,30.08,West,259,0.0,14.0,67,0.00,,,0.00,Wunderground v.1.15,2013-01-21 06:50:00,
2013-01-21 01:56:00,37.3,27.0,30.08,West,259,0.0,14.0,66,0.00,,,0.00,Wunderground v.1.15,2013-01-21 06:56:00,
2013-01-21 02:02:00,37.5,27.2,30.08,West,259,0.0,14.0,66,0.00,,,0.00,Wunderground v.1.15,2013-01-21 07:02:00,
2013-01-21 02:08:00,37.4,27.8,30.08,West,259,0.0,14.0,68,0.00,,,0.00,Wunderground v.1.15,2013-01-21 07:08:00,
2013-01-21 02:14:00,36.7,27.5,30.09,West,259,0.0,14.0,69,0.00,,,0.00,Wunderground v.1.15,2013-01-21 07:14:00,
2013-01-21 02:20:00,36.0,27.5,30.08,West,259,0.0,14.0,71,0.00,,,0.00,Wunderground v.1.15,2013-01-21 07:20:00,
2013-01-21 02:26:00,35.3,27.5,30.09,West,259,0.0,14.0,73,0.00,,,0.00,Wunderground v.1.15,2013-01-21 07:26:00,
2013-01-21 02:34:00,34.8,26.7,30.09,West,259,0.0,14.0,72,0.00,,,0.00,Wunderground v.1.15,2013-01-21 07:34:00,
2013-01-21 02:40:00,34.5,27.1,30.09,West,259,0.0,14.0,74,0.00,,,0.00,Wunderground v.1.15,2013-01-21 07:40:00,
2013-01-21 02:46:00,34.3,27.2,30.09,West,259,0.0,14.0,75,0.00,,,0.00,Wunderground v.1.15,2013-01-21 07:46:00,
2013-01-21 02:52:00,34.0,26.9,30.09,West,259,0.0,14.0,75,0.00,,,0.00,Wunderground v.1.15,2013-01-21 07:52:00,
2013-01-21 02:58:00,33.7,26.9,30.09,West,259,0.0,14.0,76,0.00,,,0.00,Wunderground v.1.15,2013-01-21 07:58:00,
2013-01-21 03:04:00,33.4,27.3,30.09,West,259,0.0,14.0,78,0.00,,,0.00,Wunderground v.1.15,2013-01-21 08:04:00,
2013-01-21 03:10:00,33.1,27.3,30.09,West,259,0.0,14.0,79,0.00,,,0.00,Wunderground v.1.15,2013-01-21 08:10:00,
2013-01-21 03:16:00,33.2,26.8,30.09,West,259,0.0,14.0,77,0.00,,,0.00,Wunderground v.1.15,2013-01-21 08:16:00,
2013-01-21 03:22:00,33.3,26.9,30.09,West,259,0.0,14.0,77,0.00,,,0.00,Wunderground v.1.15,2013-01-21 08:22:00,
2013-01-21 03:28:00,32.8,27.0,30.09,West,259,0.0,14.0,79,0.00,,,0.00,Wunderground v.1.15,2013-01-21 08:28:00,
2013-01-21 03:34:00,32.3,26.8,30.09,West,259,0.0,14.0,80,0.00,,,0.00,Wunderground v.1.15,2013-01-21 08:34:00,
2013-01-21 03:40:00,32.2,26.7,30.09,West,259,0.0,14.0,80,0.00,,,0.00,Wunderground v.1.15,2013-01-21 08:40:00,
2013-01-21 03:46:00,32.3,26.8,30.09,West,259,0.0,14.0,80,0.00,,,0.00,Wunderground v.1.15,2013-01-21 08:46:00,
2013-01-21 03:52:00,31.9,26.7,30.09,West,259,0.0,14.0,81,0.00,,,0.00,Wunderground v.1.15,2013-01-21 08:52:00,
2013-01-21 03:58:00,32.2,26.4,30.09,West,259,0.0,14.0,79,0.00,,,0.00,Wunderground v.1.15,2013-01-21 08:58:00,
2013-01-21 04:04:00,32.6,26.8,30.09,West,259,0.0,14.0,79,0.00,,,0.00,Wunderground v.1.15,2013-01-21 09:04:00,
2013-01-21 04:10:00,32.3,26.8,30.09,West,259,0.0,14.0,80,0.00,,,0.00,Wunderground v.1.15,2013-01-21 09:10:00,
2013-01-21 04:16:00,31.8,26.6,30.08,West,259,0.0,14.0,81,0.00,,,0.00,Wunderground v.1.15,2013-01-21 09:16:00,
2013-01-21 04:22:00,31.9,26.1,30.08,West,259,0.0,14.0,79,0.00,,,0.00,Wunderground v.1.15,2013-01-21 09:22:00,
2013-01-21 04:28:00,32.2,26.4,30.08,West,259,0.0,14.0,79,0.00,,,0.00,Wunderground v.1.15,2013-01-21 09:28:00,
2013-01-21 04:34:00,32.3,26.5,30.08,West,259,0.0,14.0,79,0.00,,,0.00,Wunderground v.1.15,2013-01-21 09:34:00,
2013-01-21 04:40:00,32.3,26.5,30.08,West,259,0.0,14.0,79,0.00,,,0.00,Wunderground v.1.15,2013-01-21 09:40:00,
2013-01-21 04:46:00,31.9,26.4,30.08,West,259,0.0,14.0,80,0.00,,,0.00,Wunderground v.1.15,2013-01-21 09:46:00,
2013-01-21 04:52:00,31.6,26.1,30.08,West,259,0.0,14.0,80,0.00,,,0.00,Wunderground v.1.15,2013-01-21 09:52:00,
2013-01-21 04:58:00,30.8,26.0,30.08,West,259,0.0,14.0,82,0.00,,,0.00,Wunderground v.1.15,2013-01-21 09:58:00,
2013-01-21 05:04:00,30.6,25.8,30.07,West,259,0.0,14.0,82,0.00,,,0.00,Wunderground v.1.15,2013-01-21 10:04:00,
2013-01-21 05:10:00,30.4,25.9,30.08,West,259,0.0,14.0,83,0.00,,,0.00,Wunderground v.1.15,2013-01-21 10:10:00,
2013-01-21 05:16:00,30.2,25.9,30.08,West,259,0.0,14.0,84,0.00,,,0.00,Wunderground v.1.15,2013-01-21 10:16:00,
2013-01-21 05:22:00,29.7,25.5,30.07,West,259,0.0,14.0,84,0.00,,,0.00,Wunderground v.1.15,2013-01-21 10:22:00,
2013-01-21 05:28:00,29.5,25.5,30.07,West,259,0.0,14.0,85,0.00,,,0.00,Wunderground v.1.15,2013-01-21 10:28:00,
2013-01-21 05:34:00,29.4,25.4,30.07,West,259,0.0,14.0,85,0.00,,,0.00,Wunderground v.1.15,2013-01-21 10:34:00,
2013-01-21 05:40:00,29.4,25.4,30.08,West,259,0.0,14.0,85,0.00,,,0.00,Wunderground v.1.15,2013-01-21 10:40:00,
2013-01-21 05:46:00,29.4,25.4,30.08,West,259,0.0,14.0,85,0.00,,,0.00,Wunderground v.1.15,2013-01-21 10:46:00,
2013-01-21 05:52:00,29.2,25.3,30.08,SSW,204,0.0,14.0,85,0.00,,,0.00,Wunderground v.1.15,2013-01-21 10:52:00,
2013-01-21 05:58:00,29.1,25.4,30.08,SSW,204,0.0,14.0,86,0.00,,,0.00,Wunderground v.1.15,2013-01-21 10:58:00,
2013-01-21 06:04:00,29.1,25.4,30.08,SSW,204,0.0,14.0,86,0.00,,,0.00,Wunderground v.1.15,2013-01-21 11:04:00,
2013-01-21 06:10:00,29.0,25.3,30.08,SSW,204,0.0,14.0,86,0.00,,,0.00,Wunderground v.1.15,2013-01-21 11:10:00,
2013-01-21 06:16:00,29.0,25.3,30.08,SSW,204,0.0,14.0,86,0.00,,,0.00,Wunderground v.1.15,2013-01-21 11:16:00,
2013-01-21 06:22:00,29.0,25.3,30.08,SSW,204,0.0,14.0,86,0.00,,,0.00,Wunderground v.1.15,2013-01-21 11:22:00,
2013-01-21 06:28:00,28.9,25.5,30.08,SSW,204,0.0,14.0,87,0.00,,,0.00,Wunderground v.1.15,2013-01-21 11:28:00,
2013-01-21 06:34:00,29.0,25.6,30.08,SSW,204,0.0,14.0,87,0.00,,,0.00,Wunderground v.1.15,2013-01-21 11:34:00,
2013-01-21 06:40:00,29.1,25.7,30.08,SSW,204,0.0,14.0,87,0.00,,,0.00,Wunderground v.1.15,2013-01-21 11:40:00,
2013-01-21 06:46:00,29.0,25.6,30.08,SSW,204,0.0,14.0,87,0.00,,,0.00,Wunderground v.1.15,2013-01-21 11:46:00,
2013-01-21 06:52:00,29.0,25.6,30.08,SSW,204,0.0,14.0,87,0.00,,,0.00,Wunderground v.1.15,2013-01-21 11:52:00,
2013-01-21 06:58:00,29.1,25.4,30.08,SSW,204,0.0,14.0,86,0.00,,,0.00,Wunderground v.1.15,2013-01-21 11:58:00,
2013-01-21 07:04:00,29.6,25.6,30.08,SSW,204,0.0,14.0,85,0.00,,,0.00,Wunderground v.1.15,2013-01-21 12:04:00,
2013-01-21 07:10:00,30.0,25.5,30.08,SSW,204,0.0,14.0,83,0.00,,,0.00,Wunderground v.1.15,2013-01-21 12:10:00,
2013-01-21 07:16:00,30.4,25.3,30.08,SSW,204,0.0,14.0,81,0.00,,,0.00,Wunderground v.1.15,2013-01-21 12:16:00,
2013-01-21 07:22:00,30.8,25.4,30.08,SSW,204,0.0,14.0,80,0.00,,,0.00,Wunderground v.1.15,2013-01-21 12:22:00,
2013-01-21 07:28:00,31.2,24.8,30.08,SSW,204,0.0,14.0,77,0.00,,,0.00,Wunderground v.1.15,2013-01-21 12:28:00,
2013-01-21 07:34:00,32.3,24.6,30.08,SSW,204,0.0,14.0,73,0.00,,,0.00,Wunderground v.1.15,2013-01-21 12:34:00,
2013-01-21 07:40:00,33.0,24.6,30.08,SSW,204,0.0,14.0,71,0.00,,,0.00,Wunderground v.1.15,2013-01-21 12:40:00,
2013-01-21 07:46:00,33.5,24.4,30.08,SSW,204,0.0,14.0,69,0.00,,,0.00,Wunderground v.1.15,2013-01-21 12:46:00,
2013-01-21 07:52:00,33.8,23.6,30.08,SSW,204,0.0,14.0,66,0.00,,,0.00,Wunderground v.1.15,2013-01-21 12:52:00,
2013-01-21 07:58:00,34.7,23.8,30.08,SSW,204,0.0,14.0,64,0.00,,,0.00,Wunderground v.1.15,2013-01-21 12:58:00,
2013-01-21 08:04:00,35.9,23.7,30.08,SSW,204,0.0,14.0,61,0.00,,,0.00,Wunderground v.1.15,2013-01-21 13:04:00,
2013-01-21 08:10:00,36.6,24.0,30.08,SSW,204,0.0,14.0,60,0.00,,,0.00,Wunderground v.1.15,2013-01-21 13:10:00,
2013-01-21 08:16:00,36.7,24.1,30.08,SSW,202,0.0,14.0,60,0.00,,,0.00,Wunderground v.1.15,2013-01-21 13:16:00,
2013-01-21 08:22:00,37.1,24.1,30.08,SSW,202,0.0,14.0,59,0.00,,,0.00,Wunderground v.1.15,2013-01-21 13:22:00,
2013-01-21 08:28:00,37.2,23.8,30.08,SE,146,1.0,14.0,58,0.00,,,0.00,Wunderground v.1.15,2013-01-21 13:28:00,
2013-01-21 08:34:00,37.4,24.0,30.08,SSE,151,1.0,14.0,58,0.00,,,0.00,Wunderground v.1.15,2013-01-21 13:34:00,
2013-01-21 08:40:00,37.6,23.7,30.08,SSE,161,1.0,14.0,57,0.00,,,0.00,Wunderground v.1.15,2013-01-21 13:40:00,
2013-01-21 08:46:00,37.9,24.4,30.07,SSE,159,2.0,14.0,58,0.00,,,0.00,Wunderground v.1.15,2013-01-21 13:46:00,
2013-01-21 08:52:00,38.2,24.7,30.07,SE,141,2.0,14.0,58,0.00,,,0.00,Wunderground v.1.15,2013-01-21 13:52:00,
2013-01-21 08:58:00,38.7,25.2,30.08,SSE,157,2.0,14.0,58,0.00,,,0.00,Wunderground v.1.15,2013-01-21 13:58:00,
2013-01-21 09:04:00,38.7,26.0,30.07,SE,130,2.0,14.0,60,0.00,,,0.00,Wunderground v.1.15,2013-01-21 14:04:00,
2013-01-21 09:10:00,39.5,26.3,30.08,SSE,155,2.0,2.0,59,0.00,,,0.00,Wunderground v.1.15,2013-01-21 14:10:00,
2013-01-21 09:16:00,39.2,26.5,30.08,South,174,2.0,14.0,60,0.00,,,0.00,Wunderground v.1.15,2013-01-21 14:16:00,
2013-01-21 09:22:00,39.4,27.1,30.08,South,170,2.0,14.0,61,0.00,,,0.00,Wunderground v.1.15,2013-01-21 14:22:00,
2013-01-21 09:28:00,39.4,27.5,30.08,South,190,3.0,14.0,62,0.00,,,0.00,Wunderground v.1.15,2013-01-21 14:28:00,
2013-01-21 09:34:00,39.8,27.4,30.08,South,170,2.0,14.0,61,0.00,,,0.00,Wunderground v.1.15,2013-01-21 14:34:00,
2013-01-21 09:40:00,39.5,27.2,30.08,SSE,153,3.0,14.0,61,0.00,,,0.00,Wunderground v.1.15,2013-01-21 14:40:00,
2013-01-21 09:46:00,40.0,27.6,30.08,SE,138,4.0,14.0,61,0.00,,,0.00,Wunderground v.1.15,2013-01-21 14:46:00,
2013-01-21 09:52:00,40.2,28.2,30.08,SSE,161,4.0,14.0,62,0.00,,,0.00,Wunderground v.1.15,2013-01-21 14:52:00,
2013-01-21 09:58:00,41.0,29.0,30.08,South,177,3.0,14.0,62,0.00,,,0.00,Wunderground v.1.15,2013-01-21 14:58:00,
2013-01-21 10:04:00,41.0,28.2,30.07,SSE,150,4.0,14.0,60,0.00,,,0.00,Wunderground v.1.15,2013-01-21 15:04:00,
2013-01-21 10:10:00,40.7,27.5,30.07,South,191,5.0,14.0,59,0.00,,,0.00,Wunderground v.1.15,2013-01-21 15:10:00,
2013-01-21 10:16:00,41.2,27.5,30.07,SE,144,5.0,14.0,58,0.00,,,0.00,Wunderground v.1.15,2013-01-21 15:16:00,
2013-01-21 10:22:00,41.8,27.7,30.07,SE,146,4.0,14.0,57,0.00,,,0.00,Wunderground v.1.15,2013-01-21 15:22:00,
2013-01-21 10:28:00,42.2,28.0,30.06,SSE,150,4.0,14.0,57,0.00,,,0.00,Wunderground v.1.15,2013-01-21 15:28:00,
2013-01-21 10:34:00,42.6,28.8,30.06,South,182,4.0,14.0,58,0.00,,,0.00,Wunderground v.1.15,2013-01-21 15:34:00,
2013-01-21 10:40:00,43.0,29.2,30.06,South,176,4.0,4.0,58,0.00,,,0.00,Wunderground v.1.15,2013-01-21 15:40:00,
2013-01-21 10:46:00,43.0,29.2,30.06,SE,135,3.0,14.0,58,0.00,,,0.00,Wunderground v.1.15,2013-01-21 15:46:00,
2013-01-21 10:52:00,43.6,30.6,30.05,SSE,157,4.0,5.0,60,0.00,,,0.00,Wunderground v.1.15,2013-01-21 15:52:00,
2013-01-21 10:58:00,44.3,30.4,30.05,SW,226,3.0,14.0,58,0.00,,,0.00,Wunderground v.1.15,2013-01-21 15:58:00,
2013-01-21 11:04:00,45.4,31.9,30.05,SW,219,2.0,14.0,59,0.00,,,0.00,Wunderground v.1.15,2013-01-21 16:04:00,
2013-01-21 11:10:00,46.4,31.5,30.05,SSE,162,2.0,14.0,56,0.00,,,0.00,Wunderground v.1.15,2013-01-21 16:10:00,
2013-01-21 11:16:00,46.3,31.4,30.04,SW,223,3.0,14.0,56,0.00,,,0.00,Wunderground v.1.15,2013-01-21 16:16:00,
2013-01-21 11:22:00,46.3,30.5,30.04,SSE,160,3.0,14.0,54,0.00,,,0.00,Wunderground v.1.15,2013-01-21 16:22:00,
2013-01-21 11:28:00,47.1,31.3,30.03,WSW,252,3.0,14.0,54,0.00,,,0.00,Wunderground v.1.15,2013-01-21 16:28:00,
2013-01-21 11:34:00,47.2,30.9,30.03,SSW,205,3.0,14.0,53,0.00,,,0.00,Wunderground v.1.15,2013-01-21 16:34:00,
2013-01-21 11:40:00,47.6,31.8,30.03,SSW,198,3.0,3.0,54,0.00,,,0.00,Wunderground v.1.15,2013-01-21 16:40:00,
2013-01-21 11:46:00,48.5,32.1,30.02,SSE,162,2.0,14.0,53,0.00,,,0.00,Wunderground v.1.15,2013-01-21 16:46:00,
2013-01-21 11:52:00,48.4,29.1,30.01,WSW,254,3.0,14.0,47,0.00,,,0.00,Wunderground v.1.15,2013-01-21 16:52:00,
2013-01-21 11:58:00,48.5,29.7,30.01,WSW,250,3.0,14.0,48,0.00,,,0.00,Wunderground v.1.15,2013-01-21 16:58:00,
2013-01-21 12:04:00,48.3,30.0,30.00,WSW,248,3.0,14.0,49,0.00,,,0.00,Wunderground v.1.15,2013-01-21 17:04:00,
2013-01-21 12:10:00,48.7,29.4,30.00,WSW,238,2.0,14.0,47,0.00,,,0.00,Wunderground v.1.15,2013-01-21 17:10:00,
2013-01-21 12:16:00,48.7,29.4,29.99,WSW,245,3.0,14.0,47,0.00,,,0.00,Wunderground v.1.15,2013-01-21 17:16:00,
2013-01-21 12:22:00,48.4,28.5,29.98,WSW,250,4.0,14.0,46,0.00,,,0.00,Wunderground v.1.15,2013-01-21 17:22:00,
2013-01-21 12:28:00,48.6,30.3,29.98,WSW,252,3.0,14.0,49,0.00,,,0.00,Wunderground v.1.15,2013-01-21 17:28:00,
2013-01-21 12:34:00,48.9,30.1,29.97,WSW,247,3.0,14.0,48,0.00,,,0.00,Wunderground v.1.15,2013-01-21 17:34:00,
2013-01-21 12:40:00,49.1,28.7,29.97,WSW,250,3.0,14.0,45,0.00,,,0.00,Wunderground v.1.15,2013-01-21 17:40:00,
2013-01-21 12:46:00,49.2,29.3,29.97,WSW,255,5.0,14.0,46,0.00,,,0.00,Wunderground v.1.15,2013-01-21 17:46:00,
2013-01-21 12:52:00,49.2,29.3,29.96,SSE,152,4.0,14.0,46,0.00,,,0.00,Wunderground v.1.15,2013-01-21 17:52:00,
2013-01-21 12:58:00,49.4,29.5,29.96,SW,229,5.0,14.0,46,0.00,,,0.00,Wunderground v.1.15,2013-01-21 17:58:00,
2013-01-21 13:04:00,50.0,30.5,29.95,WSW,252,3.0,14.0,47,0.00,,,0.00,Wunderground v.1.15,2013-01-21 18:04:00,
2013-01-21 13:10:00,50.0,30.0,29.95,West,267,4.0,5.0,46,0.00,,,0.00,Wunderground v.1.15,2013-01-21 18:10:00,
2013-01-21 13:16:00,49.9,30.5,29.94,WSW,246,4.0,7.0,47,0.00,,,0.00,Wunderground v.1.15,2013-01-21 18:16:00,
2013-01-21 13:22:00,50.3,31.3,29.94,WSW,242,3.0,4.0,48,0.00,,,0.00,Wunderground v.1.15,2013-01-21 18:22:00,
2013-01-21 13:28:00,50.5,31.0,29.93,WSW,238,4.0,9.0,47,0.00,,,0.00,Wunderground v.1.15,2013-01-21 18:28:00,
2013-01-21 13:34:00,50.7,31.2,29.92,WSW,245,5.0,9.0,47,0.00,,,0.00,Wunderground v.1.15,2013-01-21 18:34:00,
2013-01-21 13:40:00,50.7,30.7,29.92,West,261,5.0,5.0,46,0.00,,,0.00,Wunderground v.1.15,2013-01-21 18:40:00,
2013-01-21 13:46:00,50.8,30.7,29.91,WSW,257,5.0,7.0,46,0.00,,,0.00,Wunderground v.1.15,2013-01-21 18:46:00,
2013-01-21 13:52:00,51.1,31.6,29.90,WSW,238,5.0,9.0,47,0.00,,,0.00,Wunderground v.1.15,2013-01-21 18:52:00,
2013-01-21 13:58:00,51.0,30.9,29.90,WSW,244,6.0,9.0,46,0.00,,,0.00,Wunderground v.1.15,2013-01-21 18:58:00,
2013-01-21 14:04:00,51.3,30.7,29.90,WSW,252,6.0,6.0,45,0.00,,,0.00,Wunderground v.1.15,2013-01-21 19:04:00,
2013-01-21 14:10:00,51.5,30.8,29.89,WSW,243,6.0,6.0,45,0.00,,,0.00,Wunderground v.1.15,2013-01-21 19:10:00,
2013-01-21 14:16:00,51.7,32.1,29.89,WSW,240,6.0,11.0,47,0.00,,,0.00,Wunderground v.1.15,2013-01-21 19:16:00,
2013-01-21 14:22:00,52.0,31.8,29.88,SW,232,6.0,8.0,46,0.00,,,0.00,Wunderground v.1.15,2013-01-21 19:22:00,
2013-01-21 14:28:00,52.4,32.2,29.88,WSW,257,5.0,8.0,46,0.00,,,0.00,Wunderground v.1.15,2013-01-21 19:28:00,
2013-01-21 14:34:00,52.8,32.0,29.88,WSW,252,4.0,6.0,45,0.00,,,0.00,Wunderground v.1.15,2013-01-21 19:34:00,
2013-01-21 14:40:00,53.2,32.4,29.88,WSW,244,3.0,3.0,45,0.00,,,0.00,Wunderground v.1.15,2013-01-21 19:40:00,
2013-01-21 14:46:00,53.5,33.2,29.87,West,259,2.0,3.0,46,0.00,,,0.00,Wunderground v.1.15,2013-01-21 19:46:00,
2013-01-21 14:52:00,53.6,32.8,29.87,WSW,242,3.0,8.0,45,0.00,,,0.00,Wunderground v.1.15,2013-01-21 19:52:00,
2013-01-21 14:58:00,53.2,32.4,29.87,WSW,244,5.0,8.0,45,0.00,,,0.00,Wunderground v.1.15,2013-01-21 19:58:00,
2013-01-21 15:04:00,53.1,32.3,29.86,West,272,5.0,11.0,45,0.00,,,0.00,Wunderground v.1.15,2013-01-21 20:04:00,
2013-01-21 15:10:00,53.3,32.5,29.86,WSW,249,6.0,12.0,45,0.00,,,0.00,Wunderground v.1.15,2013-01-21 20:10:00,
2013-01-21 15:16:00,52.9,33.2,29.85,WSW,255,7.0,12.0,47,0.00,,,0.00,Wunderground v.1.15,2013-01-21 20:16:00,
2013-01-21 15:22:00,53.1,32.3,29.85,West,262,6.0,11.0,45,0.00,,,0.00,Wunderground v.1.15,2013-01-21 20:22:00,
2013-01-21 15:28:00,53.0,32.8,29.85,WSW,246,6.0,11.0,46,0.00,,,0.00,Wunderground v.1.15,2013-01-21 20:28:00,
2013-01-21 15:34:00,53.0,32.2,29.85,WSW,248,6.0,11.0,45,0.00,,,0.00,Wunderground v.1.15,2013-01-21 20:34:00,
2013-01-21 15:40:00,53.1,32.3,29.84,WSW,247,6.0,11.0,45,0.00,,,0.00,Wunderground v.1.15,2013-01-21 20:40:00,
2013-01-21 15:46:00,53.1,32.8,29.85,WSW,248,7.0,11.0,46,0.00,,,0.00,Wunderground v.1.15,2013-01-21 20:46:00,
2013-01-21 15:52:00,53.2,32.9,29.85,WSW,255,6.0,11.0,46,0.00,,,0.00,Wunderground v.1.15,2013-01-21 20:52:00,
2013-01-21 15:58:00,53.3,33.6,29.84,WSW,254,5.0,11.0,47,0.00,,,0.00,Wunderground v.1.15,2013-01-21 20:58:00,
2013-01-21 16:04:00,53.5,33.2,29.84,WSW,255,3.0,11.0,46,0.00,,,0.00,Wunderground v.1.15,2013-01-21 21:04:00,
2013-01-21 16:10:00,53.4,33.1,29.83,West,263,4.0,4.0,46,0.00,,,0.00,Wunderground v.1.15,2013-01-21 21:10:00,
2013-01-21 16:16:00,53.5,33.2,29.82,SSW,200,4.0,11.0,46,0.00,,,0.00,Wunderground v.1.15,2013-01-21 21:16:00,
2013-01-21 16:22:00,53.4,33.1,29.82,SW,234,5.0,11.0,46,0.00,,,0.00,Wunderground v.1.15,2013-01-21 21:22:00,
2013-01-21 16:28:00,53.4,33.7,29.82,WSW,242,5.0,11.0,47,0.00,,,0.00,Wunderground v.1.15,2013-01-21 21:28:00,
2013-01-21 16:34:00,53.4,34.2,29.82,WSW,251,3.0,11.0,48,0.00,,,0.00,Wunderground v.1.15,2013-01-21 21:34:00,
2013-01-21 16:40:00,53.2,33.5,29.82,WSW,250,4.0,4.0,47,0.00,,,0.00,Wunderground v.1.15,2013-01-21 21:40:00,
2013-01-21 16:46:00,52.9,33.2,29.82,West,261,3.0,11.0,47,0.00,,,0.00,Wunderground v.1.15,2013-01-21 21:46:00,
2013-01-21 16:52:00,52.8,33.6,29.82,WSW,253,3.0,11.0,48,0.00,,,0.00,Wunderground v.1.15,2013-01-21 21:52:00,
2013-01-21 16:58:00,52.7,34.1,29.82,WSW,249,3.0,11.0,49,0.00,,,0.00,Wunderground v.1.15,2013-01-21 21:58:00,
2013-01-21 17:04:00,52.5,33.9,29.82,WSW,257,2.0,11.0,49,0.00,,,0.00,Wunderground v.1.15,2013-01-21 22:04:00,
2013-01-21 17:10:00,52.3,34.2,29.82,WSW,252,2.0,11.0,50,0.00,,,0.00,Wunderground v.1.15,2013-01-21 22:10:00,
2013-01-21 17:16:00,52.1,34.0,29.81,WSW,253,2.0,11.0,50,0.00,,,0.00,Wunderground v.1.15,2013-01-21 22:16:00,
2013-01-21 17:22:00,51.9,34.3,29.82,WSW,251,2.0,11.0,51,0.00,,,0.00,Wunderground v.1.15,2013-01-21 22:22:00,
2013-01-21 17:28:00,51.7,34.1,29.81,WSW,251,2.0,11.0,51,0.00,,,0.00,Wunderground v.1.15,2013-01-21 22:28:00,
2013-01-21 17:34:00,51.3,34.3,29.82,WSW,251,1.0,11.0,52,0.00,,,0.00,Wunderground v.1.15,2013-01-21 22:34:00,
2013-01-21 17:40:00,51.2,34.2,29.82,WSW,254,1.0,11.0,52,0.00,,,0.00,Wunderground v.1.15,2013-01-21 22:40:00,
2013-01-21 17:46:00,51.1,34.1,29.82,WSW,252,2.0,11.0,52,0.00,,,0.00,Wunderground v.1.15,2013-01-21 22:46:00,
2013-01-21 17:52:00,50.9,33.9,29.82,WSW,251,2.0,11.0,52,0.00,,,0.00,Wunderground v.1.15,2013-01-21 22:52:00,
2013-01-21 17:58:00,50.7,34.2,29.82,WSW,251,1.0,11.0,53,0.00,,,0.00,Wunderground v.1.15,2013-01-21 22:58:00,
2013-01-21 18:04:00,50.5,34.0,29.82,West,261,2.0,11.0,53,0.00,,,0.00,Wunderground v.1.15,2013-01-21 23:04:00,
2013-01-21 18:10:00,50.2,33.7,29.83,WNW,290,2.0,2.0,53,0.00,,,0.00,Wunderground v.1.15,2013-01-21 23:10:00,
2013-01-21 18:16:00,49.7,33.7,29.83,WNW,290,1.0,11.0,54,0.00,,,0.00,Wunderground v.1.15,2013-01-21 23:16:00,
2013-01-21 18:22:00,49.4,31.0,29.83,WNW,296,2.0,11.0,49,0.00,,,0.00,Wunderground v.1.15,2013-01-21 23:22:00,
2013-01-21 18:28:00,50.1,30.1,29.84,West,261,5.0,11.0,46,0.00,,,0.00,Wunderground v.1.15,2013-01-21 23:28:00,
2013-01-21 18:34:00,50.1,29.0,29.84,WNW,298,5.0,11.0,44,0.00,,,0.00,Wunderground v.1.15,2013-01-21 23:34:00,
2013-01-21 18:40:00,49.9,28.3,29.84,West,271,5.0,5.0,43,0.00,,,0.00,Wunderground v.1.15,2013-01-21 23:40:00,
2013-01-21 18:46:00,49.7,27.5,29.85,WNW,290,5.0,11.0,42,0.00,,,0.00,Wunderground v.1.15,2013-01-21 23:46:00,
2013-01-21 18:52:00,49.4,26.7,29.85,WNW,285,5.0,11.0,41,0.00,,,0.00,Wunderground v.1.15,2013-01-21 23:52:00,
2013-01-21 18:58:00,49.2,25.9,29.85,West,265,6.0,11.0,40,0.00,,,0.00,Wunderground v.1.15,2013-01-21 23:58:00,
2013-01-21 19:04:00,48.9,25.6,29.85,WNW,284,6.0,11.0,40,0.00,,,0.00,Wunderground v.1.15,2013-01-22 00:04:00,
2013-01-21 19:10:00,48.6,25.9,29.85,NW,309,5.0,5.0,41,0.00,,,0.00,Wunderground v.1.15,2013-01-22 00:10:00,
2013-01-21 19:16:00,48.2,25.6,29.85,West,279,4.0,11.0,41,0.00,,,0.00,Wunderground v.1.15,2013-01-22 00:16:00,
2013-01-21 19:22:00,47.9,25.9,29.86,West,275,4.0,11.0,42,0.00,,,0.00,Wunderground v.1.15,2013-01-22 00:22:00,
2013-01-21 19:28:00,47.6,26.2,29.85,West,264,4.0,11.0,43,0.00,,,0.00,Wunderground v.1.15,2013-01-22 00:28:00,
2013-01-21 19:34:00,47.4,25.4,29.86,WNW,292,5.0,11.0,42,0.00,,,0.00,Wunderground v.1.15,2013-01-22 00:34:00,
2013-01-21 19:40:00,47.5,25.5,29.86,WNW,285,6.0,6.0,42,0.00,,,0.00,Wunderground v.1.15,2013-01-22 00:40:00,
2013-01-21 19:46:00,47.2,25.3,29.86,West,274,6.0,11.0,42,0.00,,,0.00,Wunderground v.1.15,2013-01-22 00:46:00,
2013-01-21 19:52:00,46.9,25.5,29.87,West,279,5.0,11.0,43,0.00,,,0.00,Wunderground v.1.15,2013-01-22 00:52:00,
2013-01-21 19:58:00,46.7,24.8,29.87,WNW,290,5.0,11.0,42,0.00,,,0.00,Wunderground v.1.15,2013-01-22 00:58:00,
2013-01-21 20:04:00,46.7,25.4,29.87,West,262,5.0,11.0,43,0.00,,,0.00,Wunderground v.1.15,2013-01-22 01:04:00,
2013-01-21 20:10:00,46.4,25.1,29.88,West,271,5.0,11.0,43,0.00,,,0.00,Wunderground v.1.15,2013-01-22 01:10:00,
2013-01-21 20:16:00,46.3,25.0,29.88,West,267,5.0,11.0,43,0.00,,,0.00,Wunderground v.1.15,2013-01-22 01:16:00,
2013-01-21 20:22:00,46.0,25.3,29.88,West,269,5.0,6.0,44,0.00,,,0.00,Wunderground v.1.15,2013-01-22 01:22:00,
2013-01-21 20:28:00,45.8,25.1,29.87,West,269,5.0,11.0,44,0.00,,,0.00,Wunderground v.1.15,2013-01-22 01:28:00,
2013-01-21 20:34:00,45.6,24.9,29.88,West,269,4.0,11.0,44,0.00,,,0.00,Wunderground v.1.15,2013-01-22 01:34:00,
2013-01-21 20:40:00,45.3,24.6,29.88,WNW,284,4.0,4.0,44,0.00,,,0.00,Wunderground v.1.15,2013-01-22 01:40:00,
2013-01-21 20:46:00,45.0,24.9,29.88,West,276,3.0,11.0,45,0.00,,,0.00,Wunderground v.1.15,2013-01-22 01:46:00,
2013-01-21 20:52:00,44.7,24.6,29.88,West,275,3.0,11.0,45,0.00,,,0.00,Wunderground v.1.15,2013-01-22 01:52:00,
2013-01-21 20:58:00,44.3,24.8,29.89,WNW,300,2.0,11.0,46,0.00,,,0.00,Wunderground v.1.15,2013-01-22 01:58:00,
2013-01-21 21:04:00,44.0,25.0,29.89,WNW,300,2.0,11.0,47,0.00,,,0.00,Wunderground v.1.15,2013-01-22 02:04:00,
2013-01-21 21:10:00,43.7,25.3,29.90,WNW,300,1.0,11.0,48,0.00,,,0.00,Wunderground v.1.15,2013-01-22 02:10:00,
2013-01-21 21:16:00,43.3,24.9,29.90,WNW,300,1.0,11.0,48,0.00,,,0.00,Wunderground v.1.15,2013-01-22 02:16:00,
2013-01-21 21:22:00,42.9,24.5,29.90,West,281,2.0,11.0,48,0.00,,,0.00,Wunderground v.1.15,2013-01-22 02:22:00,
2013-01-21 21:28:00,43.0,23.1,29.90,WNW,287,3.0,11.0,45,0.00,,,0.00,Wunderground v.1.15,2013-01-22 02:28:00,
2013-01-21 21:34:00,42.9,22.5,29.90,WNW,296,3.0,11.0,44,0.00,,,0.00,Wunderground v.1.15,2013-01-22 02:34:00,
2013-01-21 21:40:00,42.7,22.3,29.90,West,281,3.0,11.0,44,0.00,,,0.00,Wunderground v.1.15,2013-01-22 02:40:00,
2013-01-21 21:46:00,42.6,21.1,29.90,WNW,293,4.0,11.0,42,0.00,,,0.00,Wunderground v.1.15,2013-01-22 02:46:00,
2013-01-21 21:52:00,42.5,21.0,29.90,WNW,290,3.0,11.0,42,0.00,,,0.00,Wunderground v.1.15,2013-01-22 02:52:00,
2013-01-21 21:58:00,42.4,20.9,29.90,WNW,287,3.0,11.0,42,0.00,,,0.00,Wunderground v.1.15,2013-01-22 02:58:00,
2013-01-21 22:04:00,42.2,20.2,29.91,WNW,290,3.0,11.0,41,0.00,,,0.00,Wunderground v.1.15,2013-01-22 03:04:00,
2013-01-21 22:10:00,42.0,18.8,29.91,WNW,294,3.0,3.0,39,0.00,,,0.00,Wunderground v.1.15,2013-01-22 03:10:00,
2013-01-21 22:16:00,41.8,18.0,29.91,WNW,301,3.0,11.0,38,0.00,,,0.00,Wunderground v.1.15,2013-01-22 03:16:00,
2013-01-21 22:22:00,41.5,18.4,29.91,WNW,291,3.0,11.0,39,0.00,,,0.00,Wunderground v.1.15,2013-01-22 03:22:00,
2013-01-21 22:28:00,41.3,17.6,29.91,WNW,294,2.0,11.0,38,0.00,,,0.00,Wunderground v.1.15,2013-01-22 03:28:00,
2013-01-21 22:34:00,41.0,17.3,29.91,WNW,298,2.0,11.0,38,0.00,,,0.00,Wunderground v.1.15,2013-01-22 03:34:00,
2013-01-21 22:40:00,40.7,17.0,29.92,WNW,297,2.0,2.0,38,0.00,,,0.00,Wunderground v.1.15,2013-01-22 03:40:00,
2013-01-21 22:46:00,40.5,16.9,29.92,WNW,298,2.0,11.0,38,0.00,,,0.00,Wunderground v.1.15,2013-01-22 03:46:00,
2013-01-21 22:52:00,40.2,16.6,29.93,WNW,290,2.0,11.0,38,0.00,,,0.00,Wunderground v.1.15,2013-01-22 03:52:00,
2013-01-21 22:58:00,40.0,16.4,29.93,WNW,302,2.0,11.0,38,0.00,,,0.00,Wunderground v.1.15,2013-01-22 03:58:00,
2013-01-21 23:04:00,39.7,16.1,29.93,WNW,303,2.0,11.0,38,0.00,,,0.00,Wunderground v.1.15,2013-01-22 04:04:00,
2013-01-21 23:10:00,39.5,16.0,29.93,WNW,303,1.0,1.0,38,0.00,,,0.00,Wunderground v.1.15,2013-01-22 04:10:00,
2013-01-21 23:16:00,39.2,16.3,29.93,NW,304,1.0,11.0,39,0.00,,,0.00,Wunderground v.1.15,2013-01-22 04:16:00,
2013-01-21 23:22:00,39.0,15.5,29.93,WNW,289,1.0,11.0,38,0.00,,,0.00,Wunderground v.1.15,2013-01-22 04:22:00,
2013-01-21 23:28:00,39.0,16.1,29.93,NW,304,2.0,11.0,39,0.00,,,0.00,Wunderground v.1.15,2013-01-22 04:28:00,
2013-01-21 23:34:00,39.0,15.5,29.93,WNW,296,3.0,11.0,38,0.00,,,0.00,Wunderground v.1.15,2013-01-22 04:34:00,
2013-01-21 23:40:00,38.7,15.2,29.94,WNW,296,2.0,11.0,38,0.00,,,0.00,Wunderground v.1.15,2013-01-22 04:40:00,
2013-01-21 23:46:00,38.4,15.0,29.94,WNW,295,3.0,11.0,38,0.00,,,0.00,Wunderground v.1.15,2013-01-22 04:46:00,
2013-01-21 23:52:00,38.1,15.3,29.94,WNW,294,2.0,11.0,39,0.00,,,0.00,Wunderground v.1.15,2013-01-22 04:52:00,
2013-01-21 23:58:00,37.7,15.5,29.94,WNW,296,2.0,11.0,40,0.00,,,0.00,Wunderground v.1.15,2013-01-22 04:58:00,